,,Stat6,,Stat2,,Stat8,,Stat9,,Stat10,,Wind1,,Wind1,
time,status,PA1M_AVG,status,PR1M_SUM,status,RH1M_AVG,status,SR1M_AVG,status,TA1M_AVG,status,W1dAve1m,status,W1sAve1m,
2007-02-13, 07:00:02,VALID,918.434,VALID,0,VALID,100,VALID,0,VALID,20.0438,VALID,39,VALID,0.823847,
2007-02-13, 07:01:00,VALID,918.409,VALID,0,VALID,100,VALID,0,VALID,20.0505,VALID,27,VALID,0.902257,
2007-02-13, 07:02:00,VALID,918.391,VALID,0,VALID,100,VALID,0.0339617,VALID,20.054,VALID,37,VALID,0.869851,
2007-02-13, 07:03:00,VALID,918.36,VALID,0,VALID,100,VALID,0.0169808,VALID,20.0602,VALID,38,VALID,0.701219,
2007-02-13, 07:04:00,VALID,918.342,VALID,0,VALID,100,VALID,0.0169808,VALID,20.0833,VALID,28,VALID,0.647485,
2007-02-13, 07:05:00,VALID,918.32,VALID,0,VALID,100,VALID,0.0169808,VALID,20.0696,VALID,12,VALID,0.797066,
2007-02-13, 07:06:01,VALID,918.287,VALID,0,VALID,100,VALID,0,VALID,20.0694,VALID,5,VALID,0.905705,
2007-02-13, 07:07:00,VALID,918.256,VALID,0,VALID,100,VALID,0.0169808,VALID,20.0637,VALID,358,VALID,0.93941,
2007-02-13, 07:08:00,VALID,918.219,VALID,0,VALID,99.9769,VALID,0,VALID,20.0505,VALID,353,VALID,0.949405,
2007-02-13, 07:09:01,VALID,918.201,VALID,0,VALID,99.9405,VALID,0.0339617,VALID,20.0408,VALID,352,VALID,0.949751,
2007-02-13, 07:10:01,VALID,918.169,VALID,0,VALID,99.8108,VALID,0.0339617,VALID,20.0175,VALID,354,VALID,1.12386,
2007-02-13, 07:11:01,VALID,918.15,VALID,0,VALID,99.5959,VALID,0,VALID,20.0178,VALID,346,VALID,0.986374,
2007-02-13, 07:12:01,VALID,918.136,VALID,0,VALID,99.3238,VALID,0,VALID,19.9952,VALID,354,VALID,0.920277,
2007-02-13, 07:13:01,VALID,918.112,VALID,0,VALID,99.133,VALID,0.0339617,VALID,19.9954,VALID,338,VALID,0.786399,
2007-02-13, 07:14:00,VALID,918.091,VALID,0,VALID,98.9067,VALID,0.0169808,VALID,19.9693,VALID,317,VALID,1.06302,
2007-02-13, 07:15:00,VALID,918.057,VALID,0,VALID,98.8189,VALID,0,VALID,19.947,VALID,318,VALID,1.12736,
2007-02-13, 07:16:00,VALID,918.026,VALID,0,VALID,98.7261,VALID,0,VALID,19.9314,VALID,321,VALID,0.761242,
2007-02-13, 07:17:00,VALID,918.001,VALID,0,VALID,98.6346,VALID,0,VALID,19.9247,VALID,329,VALID,0.674479,
2007-02-13, 07:18:01,VALID,917.975,VALID,0,VALID,98.5761,VALID,0.0169808,VALID,19.908,VALID,331,VALID,0.584077,
2007-02-13, 07:19:00,VALID,917.958,VALID,0,VALID,98.3917,VALID,0,VALID,19.8892,VALID,329,VALID,0.673785,
2007-02-13, 07:20:00,VALID,917.946,VALID,0,VALID,98.3688,VALID,0,VALID,19.8996,VALID,329,VALID,0.769361,
2007-02-13, 07:21:01,VALID,917.939,VALID,0,VALID,98.295,VALID,0,VALID,19.8859,VALID,329,VALID,0.832304,
2007-02-13, 07:22:00,VALID,917.932,VALID,0,VALID,98.2721,VALID,0.0169808,VALID,19.8954,VALID,338,VALID,0.942769,
2007-02-13, 07:23:00,VALID,917.934,VALID,0,VALID,98.1285,VALID,0.0169808,VALID,19.8954,VALID,347,VALID,0.962936,
2007-02-13, 07:24:01,VALID,917.931,VALID,0,VALID,98.117,VALID,0.0169808,VALID,19.9021,VALID,354,VALID,1.08285,
2007-02-13, 07:25:01,VALID,917.951,VALID,0,VALID,98.1017,VALID,0,VALID,19.9088,VALID,4,VALID,1.06879,
2007-02-13, 07:26:00,VALID,917.96,VALID,0,VALID,98.0102,VALID,0,VALID,19.9214,VALID,7,VALID,1.03924,
2007-02-13, 07:27:00,VALID,917.963,VALID,0,VALID,97.9377,VALID,0.0169808,VALID,19.9249,VALID,11,VALID,0.911882,
2007-02-13, 07:28:01,VALID,917.976,VALID,0,VALID,97.8601,VALID,0,VALID,19.9249,VALID,22,VALID,0.774891,
2007-02-13, 07:29:00,VALID,917.975,VALID,0,VALID,97.9123,VALID,0,VALID,19.9085,VALID,22,VALID,0.840021,
2007-02-13, 07:30:01,VALID,917.979,VALID,0,VALID,97.9008,VALID,0.0169808,VALID,19.9056,VALID,22,VALID,0.948475,
2007-02-13, 07:31:00,VALID,917.98,VALID,0,VALID,97.8856,VALID,0,VALID,19.8854,VALID,33,VALID,1.06143,
2007-02-13, 07:32:01,VALID,917.982,VALID,0,VALID,97.9186,VALID,0,VALID,19.8897,VALID,30,VALID,1.32173,
2007-02-13, 07:33:01,VALID,917.984,VALID,0,VALID,97.8067,VALID,0,VALID,19.9048,VALID,27,VALID,1.0346,
2007-02-13, 07:34:01,VALID,917.991,VALID,0,VALID,98.0509,VALID,0,VALID,19.944,VALID,38,VALID,1.09375,
2007-02-13, 07:35:01,VALID,917.987,VALID,0,VALID,98.5888,VALID,0,VALID,19.9671,VALID,39,VALID,1.1685,
2007-02-13, 07:36:00,VALID,917.982,VALID,0,VALID,99.0122,VALID,0.0169808,VALID,19.9281,VALID,38,VALID,1.14196,
2007-02-13, 07:37:01,VALID,917.984,VALID,0,VALID,99.4751,VALID,-0.0169808,VALID,19.8862,VALID,34,VALID,1.14528,
2007-02-13, 07:38:01,VALID,917.978,VALID,0,VALID,99.7548,VALID,0.0169808,VALID,19.8512,VALID,32,VALID,1.10645,
2007-02-13, 07:39:01,VALID,917.976,VALID,0,VALID,99.9939,VALID,0,VALID,19.8028,VALID,27,VALID,0.99628,
2007-02-13, 07:40:01,VALID,917.979,VALID,0,VALID,100,VALID,0,VALID,19.7603,VALID,26,VALID,0.745916,
2007-02-13, 07:41:01,VALID,917.97,VALID,0,VALID,100,VALID,0,VALID,19.7248,VALID,23,VALID,0.800033,
2007-02-13, 07:42:01,VALID,917.97,VALID,0,VALID,100,VALID,0,VALID,19.7089,VALID,4,VALID,0.698946,
2007-02-13, 07:43:01,VALID,917.971,VALID,0,VALID,100,VALID,0,VALID,19.6829,VALID,3,VALID,0.611133,
2007-02-13, 07:44:00,VALID,917.965,VALID,0,VALID,100,VALID,0.0339617,VALID,19.6675,VALID,3,VALID,0.288477,
2007-02-13, 07:45:00,VALID,917.962,VALID,0,VALID,99.9667,VALID,0.0169808,VALID,19.6059,VALID,3,VALID,0.223958,
2007-02-13, 07:46:01,VALID,917.951,VALID,0,VALID,99.9494,VALID,0,VALID,19.5503,VALID,3,VALID,0.0434783,
2007-02-13, 07:47:01,VALID,917.94,VALID,0,VALID,99.9532,VALID,0,VALID,19.5287,VALID,3,VALID,0.251302,
2007-02-13, 07:48:01,VALID,917.918,VALID,0,VALID,100,VALID,0,VALID,19.519,VALID,359,VALID,0.182106,
2007-02-13, 07:49:01,VALID,917.911,VALID,0,VALID,100,VALID,0.0169808,VALID,19.5312,VALID,349,VALID,0.208899,
2007-02-13, 07:50:01,VALID,917.911,VALID,0,VALID,99.9535,VALID,0.0169808,VALID,19.525,VALID,268,VALID,0.715523,
2007-02-13, 07:51:01,VALID,917.903,VALID,0,VALID,99.854,VALID,0.0339617,VALID,19.4962,VALID,258,VALID,0.531076,
2007-02-13, 07:52:01,VALID,917.913,VALID,0,VALID,99.9697,VALID,0,VALID,19.4922,VALID,252,VALID,0.0677083,
2007-02-13, 07:53:01,VALID,917.928,VALID,0,VALID,99.9659,VALID,0.0339617,VALID,19.4987,VALID,252,VALID,0.0410156,
2007-02-13, 07:54:01,VALID,917.94,VALID,0,VALID,99.9532,VALID,0.0169808,VALID,19.5086,VALID,252,VALID,0.131479,
2007-02-13, 07:55:01,VALID,917.977,VALID,0,VALID,99.9468,VALID,0,VALID,19.5506,VALID,252,VALID,0.191584,
2007-02-13, 07:56:01,VALID,918.001,VALID,0,VALID,99.8121,VALID,0.0169808,VALID,19.5642,VALID,252,VALID,0.185023,
2007-02-13, 07:57:01,VALID,918.026,VALID,0,VALID,99.6391,VALID,0.0169808,VALID,19.5603,VALID,252,VALID,0.050071,
2007-02-13, 07:58:01,VALID,918.045,VALID,0,VALID,99.5145,VALID,0,VALID,19.5739,VALID,252,VALID,0,
2007-02-13, 07:59:01,VALID,918.066,VALID,0,VALID,99.5412,VALID,0.0509425,VALID,19.5863,VALID,252,VALID,0,
2007-02-13, 08:00:01,VALID,918.076,VALID,0,VALID,99.3085,VALID,0.0169808,VALID,19.5868,VALID,252,VALID,0,
2007-02-13, 08:01:01,VALID,918.08,VALID,0,VALID,99.2869,VALID,0.0169808,VALID,19.5799,VALID,252,VALID,0.0276163,
2007-02-13, 08:02:01,VALID,918.08,VALID,0,VALID,99.0033,VALID,0,VALID,19.5672,VALID,252,VALID,0.0974864,
2007-02-13, 08:03:01,VALID,918.074,VALID,0,VALID,98.4858,VALID,0.0169808,VALID,19.5086,VALID,252,VALID,0.247904,
2007-02-13, 08:04:01,VALID,918.069,VALID,0,VALID,98.7897,VALID,0.0169808,VALID,19.5096,VALID,252,VALID,0.183503,
2007-02-13, 08:05:01,VALID,918.037,VALID,0,VALID,99.0135,VALID,0,VALID,19.5128,VALID,252,VALID,0.145064,
2007-02-13, 08:06:00,VALID,918.017,VALID,0,VALID,99.5895,VALID,0,VALID,19.5541,VALID,252,VALID,0.254383,
2007-02-13, 08:07:00,VALID,917.998,VALID,0,VALID,99.9791,VALID,0,VALID,19.5958,VALID,252,VALID,0.144622,
2007-02-13, 08:08:00,VALID,917.978,VALID,0,VALID,100,VALID,0.0169808,VALID,19.6151,VALID,252,VALID,0,
2007-02-13, 08:09:00,VALID,917.965,VALID,0,VALID,100,VALID,0.0339617,VALID,19.6154,VALID,252,VALID,0,
2007-02-13, 08:10:00,VALID,917.965,VALID,0,VALID,99.9362,VALID,0.0169808,VALID,19.6059,VALID,252,VALID,0.0731027,
2007-02-13, 08:11:00,VALID,917.962,VALID,0,VALID,99.7218,VALID,0,VALID,19.5836,VALID,252,VALID,0.00708576,
2007-02-13, 08:12:00,VALID,917.963,VALID,0,VALID,99.5081,VALID,0,VALID,19.5476,VALID,252,VALID,0,
2007-02-13, 08:13:00,VALID,917.959,VALID,0,VALID,99.1203,VALID,0,VALID,19.4927,VALID,252,VALID,0,
2007-02-13, 08:14:00,VALID,917.953,VALID,0,VALID,98.8914,VALID,-0.0339617,VALID,19.4421,VALID,252,VALID,0,
2007-02-13, 08:15:00,VALID,917.93,VALID,0,VALID,99.0834,VALID,-0.101885,VALID,19.4331,VALID,252,VALID,0,
2007-02-13, 08:16:00,VALID,917.915,VALID,0,VALID,99.4903,VALID,-0.101885,VALID,19.4622,VALID,252,VALID,0.0525073,
2007-02-13, 08:17:00,VALID,917.887,VALID,0,VALID,99.4713,VALID,-0.101885,VALID,19.4587,VALID,252,VALID,0.0137195,
2007-02-13, 08:18:00,VALID,917.877,VALID,0,VALID,99.6671,VALID,-0.101885,VALID,19.4592,VALID,252,VALID,0.261523,
2007-02-13, 08:19:00,VALID,917.845,VALID,0,VALID,100,VALID,-0.101885,VALID,19.4945,VALID,252,VALID,0.145198,
2007-02-13, 08:20:00,VALID,917.811,VALID,0,VALID,100,VALID,-0.101885,VALID,19.5235,VALID,252,VALID,0.433949,
2007-02-13, 08:21:00,VALID,917.787,VALID,0,VALID,100,VALID,-0.101885,VALID,19.5404,VALID,252,VALID,0.487723,
2007-02-13, 08:22:00,VALID,917.763,VALID,0,VALID,100,VALID,-0.101885,VALID,19.5493,VALID,252,VALID,0.52168,
2007-02-13, 08:23:00,VALID,917.752,VALID,0,VALID,100,VALID,-0.101885,VALID,19.5625,VALID,252,VALID,0.435404,
2007-02-13, 08:24:00,VALID,917.732,VALID,0,VALID,100,VALID,-0.0849042,VALID,19.5749,VALID,252,VALID,0.265039,
2007-02-13, 08:25:00,VALID,917.708,VALID,0,VALID,99.7587,VALID,0,VALID,19.5548,VALID,252,VALID,0.0365767,
2007-02-13, 08:26:00,VALID,917.696,VALID,0,VALID,99.442,VALID,-0.0169808,VALID,19.5161,VALID,252,VALID,0,
2007-02-13, 08:27:00,VALID,917.693,VALID,0,VALID,99.6048,VALID,-0.0169808,VALID,19.5121,VALID,264,VALID,0,
2007-02-13, 08:28:00,VALID,917.673,VALID,0,VALID,99.7943,VALID,0,VALID,19.5387,VALID,328,VALID,0.486421,
2007-02-13, 08:29:00,VALID,917.648,VALID,0,VALID,99.8464,VALID,0.0339617,VALID,19.5578,VALID,343,VALID,0.872283,
2007-02-13, 08:30:00,VALID,917.652,VALID,0,VALID,99.6442,VALID,0.0169808,VALID,19.5642,VALID,355,VALID,0.896621,
2007-02-13, 08:31:00,VALID,917.625,VALID,0,VALID,99.4624,VALID,0.0509425,VALID,19.525,VALID,358,VALID,0.947266,
2007-02-13, 08:32:00,VALID,917.62,VALID,0,VALID,99.3962,VALID,0.0339617,VALID,19.4826,VALID,1,VALID,0.862674,
2007-02-13, 08:33:00,VALID,917.627,VALID,0,VALID,99.4446,VALID,0.0169808,VALID,19.4642,VALID,1,VALID,0.838956,
2007-02-13, 08:34:00,VALID,917.615,VALID,0,VALID,99.5895,VALID,0.0169808,VALID,19.4577,VALID,1,VALID,0.722929,
2007-02-13, 08:35:00,VALID,917.612,VALID,0,VALID,99.587,VALID,0.0169808,VALID,19.4478,VALID,1,VALID,0.596475,
2007-02-13, 08:36:00,VALID,917.596,VALID,0,VALID,99.5234,VALID,0.0169808,VALID,19.455,VALID,1,VALID,0.561498,
2007-02-13, 08:37:00,VALID,917.59,VALID,0,VALID,99.4077,VALID,-0.0169808,VALID,19.4379,VALID,1,VALID,0.597929,
2007-02-13, 08:38:00,VALID,917.591,VALID,0,VALID,99.2805,VALID,0.0339617,VALID,19.4478,VALID,1,VALID,0.475419,
2007-02-13, 08:39:00,VALID,917.583,VALID,0,VALID,99.1928,VALID,0,VALID,19.4451,VALID,1,VALID,0.505035,
2007-02-13, 08:40:00,VALID,917.565,VALID,0,VALID,99.1152,VALID,0,VALID,19.4421,VALID,4,VALID,0.392969,
2007-02-13, 08:41:00,VALID,917.568,VALID,0,VALID,99.0097,VALID,0,VALID,19.4351,VALID,4,VALID,0.077381,
2007-02-13, 08:42:00,VALID,917.572,VALID,0,VALID,98.8266,VALID,0,VALID,19.4354,VALID,4,VALID,0.290483,
2007-02-13, 08:43:00,VALID,917.564,VALID,0,VALID,98.7706,VALID,0.0169808,VALID,19.4031,VALID,9,VALID,0.355469,
2007-02-13, 08:44:00,VALID,917.568,VALID,0,VALID,98.7668,VALID,0,VALID,19.3967,VALID,55,VALID,0.459847,
2007-02-13, 08:45:00,VALID,917.553,VALID,0,VALID,98.8367,VALID,0,VALID,19.3669,VALID,70,VALID,0.523793,
2007-02-13, 08:46:00,VALID,917.535,VALID,0,VALID,99.0631,VALID,0,VALID,19.3825,VALID,71,VALID,0.354759,
2007-02-13, 08:47:00,VALID,917.526,VALID,0,VALID,99.1445,VALID,0.0169808,VALID,19.4222,VALID,71,VALID,0.135099,
2007-02-13, 08:48:00,VALID,917.515,VALID,0,VALID,99.0809,VALID,0.0509425,VALID,19.425,VALID,71,VALID,0.182639,
2007-02-13, 08:49:00,VALID,917.508,VALID,0,VALID,98.8558,VALID,0.0339617,VALID,19.4386,VALID,71,VALID,0,
2007-02-13, 08:50:00,VALID,917.513,VALID,0,VALID,98.6816,VALID,0,VALID,19.4255,VALID,81,VALID,0.377131,
2007-02-13, 08:51:00,VALID,917.498,VALID,0,VALID,98.7528,VALID,0,VALID,19.4351,VALID,104,VALID,0.430596,
2007-02-13, 08:52:00,VALID,917.506,VALID,0,VALID,98.8901,VALID,-0.0169808,VALID,19.4572,VALID,104,VALID,0.273251,
2007-02-13, 08:53:00,VALID,917.51,VALID,0,VALID,98.7681,VALID,0,VALID,19.4994,VALID,104,VALID,0.0440848,
2007-02-13, 08:54:00,VALID,917.518,VALID,0,VALID,98.6066,VALID,0.0169808,VALID,19.4994,VALID,104,VALID,0.150746,
2007-02-13, 08:55:00,VALID,917.524,VALID,0,VALID,98.81,VALID,0,VALID,19.5354,VALID,104,VALID,0.280342,
2007-02-13, 08:56:00,VALID,917.539,VALID,0,VALID,98.7197,VALID,0.0169808,VALID,19.5516,VALID,104,VALID,0.157703,
2007-02-13, 08:57:00,VALID,917.551,VALID,0,VALID,98.2124,VALID,0.0169808,VALID,19.5096,VALID,104,VALID,0.0130814,
2007-02-13, 08:58:00,VALID,917.559,VALID,0,VALID,97.9326,VALID,0,VALID,19.4421,VALID,103,VALID,0.27753,
2007-02-13, 08:59:00,VALID,917.573,VALID,0,VALID,98.0458,VALID,-0.0339617,VALID,19.4071,VALID,87,VALID,0.404576,
2007-02-13, 09:00:00,VALID,917.591,VALID,0,VALID,97.6427,VALID,-0.101885,VALID,19.3175,VALID,84,VALID,0.297965,
2007-02-13, 09:01:00,VALID,917.594,VALID,0,VALID,97.8296,VALID,-0.101885,VALID,19.2398,VALID,77,VALID,0.315278,
2007-02-13, 09:02:00,VALID,917.607,VALID,0,VALID,98.0089,VALID,-0.0849042,VALID,19.211,VALID,77,VALID,0.200648,
2007-02-13, 09:03:00,VALID,917.592,VALID,0,VALID,98.3306,VALID,-0.0849042,VALID,19.2043,VALID,77,VALID,0.279615,
2007-02-13, 09:04:00,VALID,917.612,VALID,0,VALID,98.6702,VALID,-0.0679233,VALID,19.2142,VALID,45,VALID,0.545455,
2007-02-13, 09:05:00,VALID,917.594,VALID,0,VALID,98.7795,VALID,-0.101885,VALID,19.2209,VALID,25,VALID,0.445513,
2007-02-13, 09:06:00,VALID,917.569,VALID,0,VALID,99.058,VALID,-0.101885,VALID,19.2271,VALID,25,VALID,0.626674,
2007-02-13, 09:07:00,VALID,917.554,VALID,0,VALID,99.4369,VALID,-0.0849042,VALID,19.2365,VALID,23,VALID,0.713415,
2007-02-13, 09:08:00,VALID,917.531,VALID,0,VALID,99.4255,VALID,-0.101885,VALID,19.24,VALID,10,VALID,0.665923,
2007-02-13, 09:09:00,VALID,917.514,VALID,0,VALID,99.6137,VALID,-0.0679233,VALID,19.2368,VALID,1,VALID,0.837573,
2007-02-13, 09:10:00,VALID,917.5,VALID,0,VALID,99.9499,VALID,-0.0339617,VALID,19.2624,VALID,1,VALID,0.991461,
2007-02-13, 09:11:00,VALID,917.491,VALID,0,VALID,100,VALID,-0.0849042,VALID,19.2983,VALID,1,VALID,0.991122,
2007-02-13, 09:12:00,VALID,917.474,VALID,0,VALID,99.999,VALID,-0.0849042,VALID,19.3172,VALID,1,VALID,1.04078,
2007-02-13, 09:13:00,VALID,917.463,VALID,0,VALID,99.9644,VALID,-0.0849042,VALID,19.3371,VALID,1,VALID,1.0744,
2007-02-13, 09:14:00,VALID,917.46,VALID,0,VALID,99.7968,VALID,-0.0169808,VALID,19.3421,VALID,360,VALID,1.10061,
2007-02-13, 09:15:00,VALID,917.45,VALID,0,VALID,99.6404,VALID,0,VALID,19.3487,VALID,3,VALID,1.17517,
2007-02-13, 09:16:00,VALID,917.436,VALID,0,VALID,99.5463,VALID,0.0169808,VALID,19.3349,VALID,2,VALID,1.37155,
2007-02-13, 09:17:00,VALID,917.426,VALID,0,VALID,99.6417,VALID,0,VALID,19.3453,VALID,6,VALID,1.63802,
2007-02-13, 09:18:00,VALID,917.406,VALID,0,VALID,99.5794,VALID,0,VALID,19.3517,VALID,9,VALID,1.5,
2007-02-13, 09:19:00,VALID,917.395,VALID,0,VALID,99.3746,VALID,-0.0169808,VALID,19.3227,VALID,14,VALID,1.36009,
2007-02-13, 09:20:00,VALID,917.374,VALID,0,VALID,99.484,VALID,0.0169808,VALID,19.2936,VALID,14,VALID,1.51086,
2007-02-13, 09:21:00,VALID,917.373,VALID,0,VALID,99.6353,VALID,0.0509425,VALID,19.2706,VALID,10,VALID,1.4435,
2007-02-13, 09:22:00,VALID,917.357,VALID,0,VALID,99.6378,VALID,0,VALID,19.2321,VALID,7,VALID,1.09043,
2007-02-13, 09:23:00,VALID,917.346,VALID,0,VALID,99.9247,VALID,0,VALID,19.206,VALID,14,VALID,1.40243,
2007-02-13, 09:24:00,VALID,917.331,VALID,0,VALID,100,VALID,0.0169808,VALID,19.1934,VALID,13,VALID,1.33445,
2007-02-13, 09:25:00,VALID,917.308,VALID,0,VALID,100,VALID,0,VALID,19.1713,VALID,3,VALID,1.25036,
2007-02-13, 09:26:00,VALID,917.29,VALID,0,VALID,100,VALID,0,VALID,19.1192,VALID,3,VALID,1.17246,
2007-02-13, 09:27:00,VALID,917.258,VALID,0,VALID,100,VALID,0,VALID,19.0546,VALID,7,VALID,1.04253,
2007-02-13, 09:28:00,VALID,917.24,VALID,0,VALID,100,VALID,0,VALID,19.0332,VALID,2,VALID,1.05774,
2007-02-13, 09:29:00,VALID,917.224,VALID,0,VALID,100,VALID,0,VALID,18.9841,VALID,7,VALID,0.958398,
2007-02-13, 09:30:00,VALID,917.212,VALID,0,VALID,100,VALID,0,VALID,18.9772,VALID,357,VALID,0.581143,
2007-02-13, 09:31:00,VALID,917.222,VALID,0,VALID,100,VALID,0,VALID,18.932,VALID,339,VALID,0.763626,
2007-02-13, 09:32:00,VALID,917.218,VALID,0,VALID,100,VALID,0,VALID,18.9355,VALID,339,VALID,0.591751,
2007-02-13, 09:33:00,VALID,917.226,VALID,0,VALID,100,VALID,0.0339617,VALID,18.9251,VALID,339,VALID,0.398801,
2007-02-13, 09:34:00,VALID,917.225,VALID,0,VALID,100,VALID,0.0509425,VALID,18.9253,VALID,339,VALID,0.0546875,
2007-02-13, 09:35:00,VALID,917.233,VALID,0,VALID,100,VALID,0.0169808,VALID,18.9,VALID,339,VALID,0,
2007-02-13, 09:36:00,VALID,917.216,VALID,0,VALID,100,VALID,0,VALID,18.8705,VALID,339,VALID,0.0699491,
2007-02-13, 09:37:00,VALID,917.219,VALID,0,VALID,100,VALID,0,VALID,18.8903,VALID,336,VALID,0.251488,
2007-02-13, 09:38:00,VALID,917.195,VALID,0,VALID,100,VALID,0,VALID,18.926,VALID,336,VALID,0.0112092,
2007-02-13, 09:39:00,VALID,917.19,VALID,0,VALID,100,VALID,0,VALID,18.9516,VALID,336,VALID,0,
2007-02-13, 09:40:00,VALID,917.179,VALID,0,VALID,100,VALID,0,VALID,18.9903,VALID,336,VALID,0,
2007-02-13, 09:41:00,VALID,917.162,VALID,0,VALID,100,VALID,0,VALID,18.9899,VALID,336,VALID,0,
2007-02-13, 09:42:00,VALID,917.168,VALID,0,VALID,100,VALID,0,VALID,18.9643,VALID,336,VALID,0,
2007-02-13, 09:43:00,VALID,917.178,VALID,0,VALID,100,VALID,0,VALID,18.9452,VALID,336,VALID,0.024858,
2007-02-13, 09:44:00,VALID,917.169,VALID,0,VALID,100,VALID,0.0169808,VALID,18.932,VALID,336,VALID,0.631479,
2007-02-13, 09:45:00,VALID,917.172,VALID,0,VALID,100,VALID,0.0339617,VALID,18.9673,VALID,347,VALID,0.929688,
2007-02-13, 09:46:00,VALID,917.155,VALID,0,VALID,100,VALID,0.0339617,VALID,18.947,VALID,6,VALID,1.20566,
2007-02-13, 09:47:00,VALID,917.141,VALID,0,VALID,100,VALID,0.0679233,VALID,18.8576,VALID,15,VALID,1.37305,
2007-02-13, 09:48:00,VALID,917.116,VALID,0,VALID,100,VALID,0,VALID,18.8226,VALID,13,VALID,1.49564,
2007-02-13, 09:49:00,VALID,917.108,VALID,0,VALID,100,VALID,0.0169808,VALID,18.8122,VALID,12,VALID,1.45756,
2007-02-13, 09:50:00,VALID,917.098,VALID,0,VALID,100,VALID,0,VALID,18.832,VALID,13,VALID,1.51062,
2007-02-13, 09:51:00,VALID,917.09,VALID,0,VALID,100,VALID,0.0339617,VALID,18.8573,VALID,9,VALID,1.62899,
2007-02-13, 09:52:00,VALID,917.086,VALID,0,VALID,100,VALID,0,VALID,18.8968,VALID,10,VALID,1.63717,
2007-02-13, 09:53:00,VALID,917.073,VALID,0,VALID,100,VALID,0.0339617,VALID,18.9288,VALID,14,VALID,1.59539,
2007-02-13, 09:54:00,VALID,917.083,VALID,0,VALID,100,VALID,0.0169808,VALID,18.9479,VALID,10,VALID,1.48601,
2007-02-13, 09:55:00,VALID,917.095,VALID,0,VALID,100,VALID,0.0339617,VALID,18.9281,VALID,5,VALID,1.47275,
2007-02-13, 09:56:00,VALID,917.096,VALID,0,VALID,100,VALID,0.0679233,VALID,18.9057,VALID,357,VALID,1.35625,
2007-02-13, 09:57:00,VALID,917.103,VALID,0,VALID,100,VALID,0.0339617,VALID,18.906,VALID,351,VALID,1.16257,
2007-02-13, 09:58:00,VALID,917.112,VALID,0,VALID,100,VALID,0.0679233,VALID,18.8901,VALID,349,VALID,1.02268,
2007-02-13, 09:59:00,VALID,917.116,VALID,0,VALID,100,VALID,-0.0169808,VALID,18.868,VALID,340,VALID,0.954268,
2007-02-13, 10:00:00,VALID,917.124,VALID,0,VALID,100,VALID,-0.0169808,VALID,18.833,VALID,334,VALID,1.0997,
2007-02-13, 10:01:00,VALID,917.112,VALID,0,VALID,100,VALID,-0.0679233,VALID,18.8493,VALID,344,VALID,0.982031,
2007-02-13, 10:02:00,VALID,917.121,VALID,0,VALID,100,VALID,-0.101885,VALID,18.8456,VALID,351,VALID,1.09794,
2007-02-13, 10:03:00,VALID,917.106,VALID,0,VALID,100,VALID,-0.0339617,VALID,18.8719,VALID,358,VALID,0.937128,
2007-02-13, 10:04:00,VALID,917.084,VALID,0,VALID,100,VALID,-0.0679233,VALID,18.8786,VALID,358,VALID,0.955433,
2007-02-13, 10:05:00,VALID,917.055,VALID,0,VALID,100,VALID,-0.0339617,VALID,18.8984,VALID,3,VALID,0.917773,
2007-02-13, 10:06:00,VALID,917.015,VALID,0,VALID,100,VALID,-0.0679233,VALID,18.8943,VALID,356,VALID,0.799293,
2007-02-13, 10:07:00,VALID,916.986,VALID,0,VALID,100,VALID,-0.0849042,VALID,18.8915,VALID,354,VALID,0.993096,
2007-02-13, 10:08:00,VALID,916.954,VALID,0,VALID,100,VALID,-0.0509425,VALID,18.927,VALID,354,VALID,0.861737,
2007-02-13, 10:09:00,VALID,916.93,VALID,0,VALID,100,VALID,-0.0849042,VALID,18.927,VALID,354,VALID,0.75093,
2007-02-13, 10:10:00,VALID,916.901,VALID,0,VALID,100,VALID,0,VALID,18.9263,VALID,360,VALID,0.916606,
2007-02-13, 10:11:00,VALID,916.888,VALID,0,VALID,100,VALID,-0.0509425,VALID,18.9459,VALID,360,VALID,0.869549,
2007-02-13, 10:12:00,VALID,916.873,VALID,0,VALID,100,VALID,-0.0679233,VALID,18.9883,VALID,360,VALID,0.810785,
2007-02-13, 10:13:00,VALID,916.869,VALID,0,VALID,100,VALID,-0.0339617,VALID,19.0047,VALID,360,VALID,0.819949,
2007-02-13, 10:14:00,VALID,916.873,VALID,0,VALID,100,VALID,-0.0679233,VALID,18.998,VALID,2,VALID,0.767299,
2007-02-13, 10:15:00,VALID,916.867,VALID,0,VALID,100,VALID,-0.0849042,VALID,18.9913,VALID,15,VALID,0.982558,
2007-02-13, 10:16:00,VALID,916.873,VALID,0,VALID,100,VALID,-0.0509425,VALID,18.9982,VALID,21,VALID,1.03125,
2007-02-13, 10:17:00,VALID,916.877,VALID,0,VALID,100,VALID,-0.0679233,VALID,18.9977,VALID,30,VALID,1.1527,
2007-02-13, 10:18:00,VALID,916.871,VALID,0,VALID,100,VALID,-0.0679233,VALID,19.0243,VALID,35,VALID,1.22266,
2007-02-13, 10:19:00,VALID,916.87,VALID,0,VALID,100,VALID,-0.0509425,VALID,19.0275,VALID,44,VALID,1.27108,
2007-02-13, 10:20:00,VALID,916.872,VALID,0,VALID,100,VALID,-0.0849042,VALID,19.0044,VALID,42,VALID,1.39583,
2007-02-13, 10:21:00,VALID,916.868,VALID,0,VALID,100,VALID,-0.0509425,VALID,18.9952,VALID,34,VALID,1.2048,
2007-02-13, 10:22:00,VALID,916.868,VALID,0,VALID,100,VALID,-0.0679233,VALID,18.9724,VALID,23,VALID,1.12798,
2007-02-13, 10:23:00,VALID,916.86,VALID,0,VALID,100,VALID,-0.0849042,VALID,18.9692,VALID,23,VALID,0.960938,
2007-02-13, 10:24:00,VALID,916.869,VALID,0,VALID,100,VALID,-0.0679233,VALID,18.9436,VALID,23,VALID,1.10603,
2007-02-13, 10:25:00,VALID,916.879,VALID,0,VALID,100,VALID,-0.0849042,VALID,18.9275,VALID,24,VALID,1.15,
2007-02-13, 10:26:00,VALID,916.89,VALID,0,VALID,100,VALID,-0.0849042,VALID,18.9438,VALID,10,VALID,0.872768,
2007-02-13, 10:27:00,VALID,916.898,VALID,0,VALID,100,VALID,-0.101885,VALID,18.9302,VALID,21,VALID,1.06818,
2007-02-13, 10:28:00,VALID,916.911,VALID,0,VALID,100,VALID,-0.0679233,VALID,18.9657,VALID,14,VALID,1.06197,
2007-02-13, 10:29:00,VALID,916.925,VALID,0,VALID,100,VALID,-0.0679233,VALID,18.9784,VALID,1,VALID,0.87064,
2007-02-13, 10:30:00,VALID,916.955,VALID,0,VALID,100,VALID,0.0339617,VALID,18.9578,VALID,353,VALID,0.980841,
2007-02-13, 10:31:00,VALID,916.968,VALID,0,VALID,100,VALID,0.0169808,VALID,18.9781,VALID,355,VALID,1.00743,
2007-02-13, 10:32:00,VALID,916.976,VALID,0,VALID,100,VALID,0.0169808,VALID,18.9719,VALID,3,VALID,0.851563,
2007-02-13, 10:33:00,VALID,916.987,VALID,0,VALID,100,VALID,0,VALID,18.9514,VALID,13,VALID,0.899325,
2007-02-13, 10:34:00,VALID,917.001,VALID,0,VALID,100,VALID,0,VALID,18.9511,VALID,30,VALID,1.01617,
2007-02-13, 10:35:00,VALID,917.017,VALID,0,VALID,100,VALID,0.0339617,VALID,18.9682,VALID,35,VALID,1.18895,
2007-02-13, 10:36:00,VALID,917.015,VALID,0,VALID,100,VALID,0.0169808,VALID,18.9581,VALID,35,VALID,1.29613,
2007-02-13, 10:37:00,VALID,917.021,VALID,0,VALID,100,VALID,0.0169808,VALID,18.9811,VALID,34,VALID,1.12997,
2007-02-13, 10:38:00,VALID,917.015,VALID,0,VALID,100,VALID,-0.0339617,VALID,18.9911,VALID,32,VALID,1.09914,
2007-02-13, 10:39:00,VALID,917.021,VALID,0,VALID,100,VALID,0,VALID,19.0035,VALID,18,VALID,1.06907,
2007-02-13, 10:40:00,VALID,917.034,VALID,0,VALID,100,VALID,0,VALID,19.0353,VALID,15,VALID,1.33662,